This demonstration page uses our WeatherBlox Daily Observations layout. Learn more.

Left ArrowRight Arrow

Hourly Observations for July 13, 2018

Temp ( °F °C ) Dew Point ( °F °C ) Humidity (%) Winds ( mph kmh ) Pressure ( in mb ) Visibility ( mi km ) Precip ( " mm )
12:53 am 00:53 Mostly Clear 82 27.8 56 13.3 41 41 S 7 11 29.91 1013 10 16 0.00 0.00
1:53 am 01:53 Partly Cloudy 81 27.2 55 12.8 41 41 SSE 5 7 29.91 1013 10 16 0.00 0.00
2:53 am 02:53 Clear 80 26.7 56 13.3 44 44 ESE 6 9 29.91 1013 10 16 0.00 0.00
3:53 am 03:53 Mostly Cloudy 79 26.1 56 13.3 45 45 SE 7 11 29.91 1013 10 16 0.00 0.00
4:53 am 04:53 Mostly Clear 76 24.4 57 13.9 52 52 E 6 9 29.91 1013 10 16 0.00 0.00
5:53 am 05:53 Mostly Clear 75 23.9 57 13.9 54 54 E 7 11 29.92 1013 10 16 0.00 0.00
6:53 am 06:53 Clear 75 23.9 56 13.3 52 52 SE 9 15 29.92 1013 10 16 0.00 0.00
7:53 am 07:53 Sunny 75 23.9 57 13.9 54 54 SE 13 20 29.93 1014 10 16 0.00 0.00
8:25 am 08:25 Mostly Sunny 76 24.4 58 14.4 54 54 SE 14 22 29.94 1014 10 16 0.00 0.00
8:53 am 08:53 Mostly Sunny 79 26.1 58 14.4 49 49 SE 16 26 29.94 1014 10 16 0.00 0.00
9:53 am 09:53 Sunny 81 27.2 60 15.6 49 49 SSE 12 19 29.96 1015 10 16 0.00 0.00
10:53 am 10:53 Sunny 86 30 60 15.6 42 42 SSE 12 19 29.95 1014 10 16 0.00 0.00
11:53 am 11:53 Sunny 90 32.2 60 15.6 37 37 SE 12 19 29.95 1014 10 16 0.00 0.00
12:53 pm 12:53 Sunny 93 33.9 59 15 32 32 ESE 7 11 29.93 1014 10 16 0.00 0.00
1:53 pm 13:53 Mostly Sunny 93 33.9 58 14.4 31 31 VRB 7 11 29.91 1013 10 16 0.00 0.00
2:53 pm 14:53 Sunny 97 36.1 57 13.9 26 26 ESE 14 22 29.88 1012 10 16 0.00 0.00
3:53 pm 15:53 Sunny 97 36.1 56 13.3 25 25 VRB 7 11 29.86 1011 10 16 0.00 0.00
4:53 pm 16:53 Sunny 97 36.1 55 12.8 24 24 SE 8 13 29.84 1011 10 16 0.00 0.00
5:53 pm 17:53 Mostly Cloudy 98 36.7 55 12.8 24 24 SE 16 26 29.83 1010 10 16 0.00 0.00
6:53 pm 18:53 Mostly Cloudy 96 35.6 54 12.2 24 24 S 12 19 29.83 1010 10 16 0.00 0.00
7:46 pm 19:46 Mostly Cloudy with Nearby Thunderstorms 95 35 54 12.2 25 25 SSE 12 19 29.71 1006 10 16 0.00 0.00
7:53 pm 19:53 Mostly Cloudy with Nearby Thunderstorms 95 35 54 12.2 25 25 SSE 10 17 29.83 1010 10 16 0.00 0.00
8:49 pm 20:49 Mostly Cloudy 88 31 57 14 35 35 SW 12 19 29.80 1009 10 16 0.00 0.00
8:53 pm 20:53 Mostly Cloudy 87 30.6 58 14.4 37 37 SW 12 19 29.86 1011 10 16 0.00 0.00
9:53 pm 21:53 Clear 85 29.4 58 14.4 40 40 Calm 29.89 1012 10 16 0.00 0.00
10:53 pm 22:53 Clear 87 30.6 55 12.8 34 34 SE 13 20 29.91 1013 10 16 0.00 0.00
11:53 pm 23:53 Clear 85 29.4 55 12.8 36 36 SE 13 20 29.92 1013 10 16 0.00 0.00

Powered by AerisWeather